sat.trackr.live / text

‹ back to catalog

ONEWEB-0407

NORAD 50487 · 2021-132U

PAYLOAD ACTIVE UNKNOWN

§ Identity

Operator
Country
UK
Launch date
2021-12-27
Launch site
TYMSC
Launch vehicle
Mass (kg)
RCS (m²)

Purposes: comms

External: N2YO · Heavens-Above · Gunter

§ Orbital elements

Epoch: 2026-05-25T01:12:16.934400Z

Period
109.20 min
Inclination
87.9169°
Eccentricity
0.0001663
Mean motion
13.18685479 rev/d
Perigee alt
1,188.5 km
Apogee alt
1,191.0 km
Semi-major
7,567.9 km
B*
1.0204e-4
RAAN
340.0523°
Arg perigee
83.7760°
Mean anomaly
276.3562°
Rev number
21,851

§ Raw data

ONEWEB-04071 50487U 21132U   26145.05019600  .00000053  00000+0  10204-3 0  99992 50487  87.9169 340.0523 0001663  83.7760 276.3562 13.18685479218510

JSON: /api/v1/satellites/50487 · /tle

For live sub-satellite position, see the globe view (requires WebGL).

§ Visibility from observer

Set your observer location to see the next 7 days of passes ≥ 10°. The values pass through the URL so the page stays shareable.

No JS? Fill the form by hand. The geolocation button needs JavaScript.